Webcam 1 more information Webcam 1


Webcam 2 more information Webcam 2


avvertimento per Temporali more information blitzortung!


avvertimento per Pioggia more information rain snow radar


altri nostri siti meteo:

TortoretometeolidoSito sul meteo

TortoretometeolidoSito sul meteo

Pomeziameteo 1Sito sul meteo

Pomeziameteo DashboardSito sul meteo

Caput FrigorisSito sul meteo

BarcellonameteoSito sul meteo

MeteoipassiSito sul meteo

ViterbometeoSito sul meteo

CastelnuovovomanometeoSito sul meteo



Ci sono vari avvisi meteo   Clicca qui per altre informazioni

Weather Underground Storia pagina Testo

Quotidiano Riepilogo per Dicembre 15, 2017 Unita:  Metrico    Inglese   Entrambi
« Indietro Day
Avanti Day »
Quotidiano Settimanale mensile Annuale Personalizzato
  Attuale: Max: Min: Media:
Temperatura: 17.9 °C 18.7 °C 17.2 °C 17.7 °C
P.to Rugiada: 7.1 °C 7.6 °C 5.8 °C 7 °C
Umidita: 49 % 52 % 44 % 49 %
Vel. Vento: 0.0 km/h 38.6 km/h 0.0 km/h 9.8 km/h
Raffiche: 6.4 km/h 53.1 km/h - -
Vento:Calm - - SW
Pressione: 1001.2 hPa 1004.6 hPa 1000.9 hPa -
Precipitazioni: 0.0 mm      
Historical Graphs
 
 
Dati di tabella per il Dicembre 15, 2017
Tempo Temperatura P.to Rugiada Pressione Vento Vel. Vento Raffiche Umidita Tasso delle precipitazioni (oraria)
00:00 17.4 °C 7.1 °C 1004.3 hPa WSW 24.1 km/h 33.8 km/h 51 % 0.0 mm
00:05 17.3 °C 7.1 °C 1004.3 hPa SW 6.4 km/h 40.2 km/h 51 % 0.0 mm
00:10 17.2 °C 6.9 °C 1004.6 hPa SW 25.7 km/h 29.0 km/h 51 % 0.0 mm
00:15 17.5 °C 6.9 °C 1004.3 hPa West 20.9 km/h 51.5 km/h 50 % 0.0 mm
00:20 17.4 °C 6.9 °C 1003.9 hPa SW 20.9 km/h 45.1 km/h 50 % 0.0 mm
00:25 17.6 °C 7.0 °C 1003.9 hPa SW 11.3 km/h 37.0 km/h 50 % 0.0 mm
00:30 17.4 °C 6.8 °C 1003.9 hPa SSW 11.3 km/h 32.2 km/h 50 % 0.0 mm
00:35 17.6 °C 6.4 °C 1003.9 hPa SW 38.6 km/h 45.1 km/h 48 % 0.0 mm
00:40 17.9 °C 6.7 °C 1003.9 hPa SW 30.6 km/h 53.1 km/h 48 % 0.0 mm
00:45 18.1 °C 6.6 °C 1003.9 hPa WSW 37.0 km/h 49.9 km/h 47 % 0.0 mm
00:50 18.0 °C 6.8 °C 1003.6 hPa SSW 1.6 km/h 53.1 km/h 48 % 0.0 mm
00:55 17.9 °C 6.7 °C 1003.6 hPa WSW 33.8 km/h 48.3 km/h 48 % 0.0 mm
01:00 18.1 °C 6.8 °C 1003.6 hPa South 1.6 km/h 48.3 km/h 48 % 0.0 mm
01:05 18.0 °C 6.8 °C 1003.6 hPa SSW 3.2 km/h 19.3 km/h 48 % 0.0 mm
01:15 17.6 °C 7.1 °C 1003.6 hPa SW 12.9 km/h 24.1 km/h 50 % 0.0 mm
01:20 17.6 °C 7.1 °C 1003.6 hPa WSW 11.3 km/h 20.9 km/h 50 % 0.0 mm
01:25 17.7 °C 7.1 °C 1003.3 hPa WSW 19.3 km/h 20.9 km/h 50 % 0.0 mm
01:30 17.7 °C 6.8 °C 1003.6 hPa South 16.1 km/h 25.7 km/h 49 % 0.0 mm
01:35 17.7 °C 6.8 °C 1003.6 hPa SW 3.2 km/h 32.2 km/h 49 % 0.0 mm
01:40 17.8 °C 6.9 °C 1003.6 hPa SSW 12.9 km/h 25.7 km/h 49 % 0.0 mm
01:45 17.9 °C 6.7 °C 1003.6 hPa SW 4.8 km/h 37.0 km/h 48 % 0.0 mm
01:50 18.1 °C 6.8 °C 1003.6 hPa Calm   25.7 km/h 48 % 0.0 mm
01:55 17.9 °C 6.7 °C 1003.9 hPa SSW 14.5 km/h 24.1 km/h 48 % 0.0 mm
02:00 18.0 °C 6.8 °C 1003.6 hPa South 16.1 km/h 25.7 km/h 48 % 0.0 mm
02:05 18.2 °C 6.9 °C 1003.6 hPa SSW 3.2 km/h 30.6 km/h 48 % 0.0 mm
02:10 18.3 °C 6.8 °C 1003.3 hPa SSW 16.1 km/h 35.4 km/h 47 % 0.0 mm
02:15 18.3 °C 6.8 °C 1003.3 hPa SSW 4.8 km/h 40.2 km/h 47 % 0.0 mm
02:20 18.3 °C 6.7 °C 1003.3 hPa SW 22.5 km/h 29.0 km/h 47 % 0.0 mm
02:25 18.2 °C 7.0 °C 1002.9 hPa SW 17.7 km/h 33.8 km/h 48 % 0.0 mm
02:30 18.2 °C 6.9 °C 1003.3 hPa SW 22.5 km/h 30.6 km/h 48 % 0.0 mm
02:35 18.1 °C 7.2 °C 1002.9 hPa SW 14.5 km/h 27.4 km/h 49 % 0.0 mm
02:40 17.9 °C 7.0 °C 1002.9 hPa Calm   30.6 km/h 49 % 0.0 mm
02:45 17.9 °C 7.1 °C 1002.9 hPa SW 4.8 km/h 30.6 km/h 49 % 0.0 mm
02:50 18.0 °C 7.1 °C 1002.9 hPa WSW 22.5 km/h 48.3 km/h 49 % 0.0 mm
02:55 17.9 °C 7.1 °C 1003.3 hPa WSW 25.7 km/h 38.6 km/h 49 % 0.0 mm
03:00 17.9 °C 7.1 °C 1002.9 hPa WSW 14.5 km/h 29.0 km/h 49 % 0.0 mm
03:05 17.9 °C 7.1 °C 1002.9 hPa SW 12.9 km/h 25.7 km/h 49 % 0.0 mm
03:10 17.9 °C 7.0 °C 1002.6 hPa SW 12.9 km/h 40.2 km/h 49 % 0.0 mm
03:15 18.1 °C 6.8 °C 1002.9 hPa WNW 27.4 km/h 46.7 km/h 48 % 0.0 mm
03:20 18.2 °C 6.7 °C 1002.6 hPa WSW 33.8 km/h 45.1 km/h 47 % 0.0 mm
03:25 18.3 °C 6.7 °C 1002.9 hPa SW 16.1 km/h 46.7 km/h 47 % 0.0 mm
03:30 18.2 °C 6.7 °C 1002.9 hPa SW 22.5 km/h 40.2 km/h 47 % 0.0 mm
03:35 18.2 °C 7.0 °C 1002.9 hPa SW 17.7 km/h 40.2 km/h 48 % 0.0 mm
03:40 18.0 °C 7.1 °C 1002.9 hPa SW 4.8 km/h 20.9 km/h 49 % 0.0 mm
03:45 17.8 °C 6.9 °C 1003.3 hPa South 1.6 km/h 25.7 km/h 49 % 0.0 mm
03:50 17.7 °C 6.8 °C 1002.9 hPa Calm   29.0 km/h 49 % 0.0 mm
03:55 17.8 °C 6.9 °C 1002.9 hPa South 16.1 km/h 35.4 km/h 49 % 0.0 mm
04:00 17.7 °C 6.8 °C 1002.6 hPa South 32.2 km/h 32.2 km/h 49 % 0.0 mm
04:05 17.7 °C 6.8 °C 1002.6 hPa Calm   32.2 km/h 49 % 0.0 mm
04:10 17.7 °C 6.8 °C 1002.3 hPa SSW 4.8 km/h 32.2 km/h 49 % 0.0 mm
04:15 17.7 °C 6.8 °C 1002.3 hPa SSW 25.7 km/h 32.2 km/h 49 % 0.0 mm
04:20 17.7 °C 7.1 °C 1002.3 hPa SSW 6.4 km/h 35.4 km/h 50 % 0.0 mm
04:25 17.7 °C 7.1 °C 1002.3 hPa SW 8.0 km/h 33.8 km/h 50 % 0.0 mm
04:30 17.6 °C 7.0 °C 1002.3 hPa Calm   24.1 km/h 50 % 0.0 mm
04:35 17.6 °C 7.0 °C 1002.3 hPa Calm   24.1 km/h 50 % 0.0 mm
04:40 17.6 °C 7.0 °C 1001.9 hPa SW 1.6 km/h 19.3 km/h 50 % 0.0 mm
04:45 17.4 °C 7.2 °C 1002.3 hPa Calm   19.3 km/h 51 % 0.0 mm
04:50 17.4 °C 7.2 °C 1002.3 hPa Calm   27.4 km/h 51 % 0.0 mm
04:55 17.4 °C 6.9 °C 1002.3 hPa Calm   22.5 km/h 50 % 0.0 mm
05:00 17.4 °C 7.1 °C 1002.3 hPa SSW 6.4 km/h 20.9 km/h 51 % 0.0 mm
05:05 17.4 °C 7.1 °C 1001.9 hPa South 4.8 km/h 16.1 km/h 51 % 0.0 mm
05:10 17.4 °C 7.1 °C 1001.9 hPa SSW 4.8 km/h 24.1 km/h 51 % 0.0 mm
05:20 17.3 °C 7.0 °C 1001.9 hPa Calm   19.3 km/h 51 % 0.0 mm
05:25 17.4 °C 7.1 °C 1002.3 hPa WSW 17.7 km/h 22.5 km/h 51 % 0.0 mm
05:30 17.6 °C 7.3 °C 1001.9 hPa WSW 1.6 km/h 24.1 km/h 51 % 0.0 mm
05:35 17.7 °C 7.4 °C 1001.9 hPa Calm   25.7 km/h 51 % 0.0 mm
05:40 17.6 °C 7.3 °C 1001.9 hPa Calm   20.9 km/h 51 % 0.0 mm
05:45 17.5 °C 7.2 °C 1001.9 hPa South 1.6 km/h 27.4 km/h 51 % 0.0 mm
05:50 17.5 °C 7.5 °C 1002.3 hPa Calm   27.4 km/h 52 % 0.0 mm
05:55 17.6 °C 7.6 °C 1002.3 hPa Calm   22.5 km/h 52 % 0.0 mm
06:00 17.7 °C 7.4 °C 1002.3 hPa SSW 4.8 km/h 25.7 km/h 51 % 0.0 mm
06:05 17.7 °C 7.4 °C 1002.3 hPa SW 3.2 km/h 22.5 km/h 51 % 0.0 mm
06:10 17.6 °C 7.6 °C 1001.9 hPa SSW 19.3 km/h 19.3 km/h 52 % 0.0 mm
06:15 17.6 °C 7.6 °C 1001.9 hPa SSW 1.6 km/h 20.9 km/h 52 % 0.0 mm
06:20 17.6 °C 7.3 °C 1001.9 hPa SW 11.3 km/h 32.2 km/h 51 % 0.0 mm
06:25 17.7 °C 7.4 °C 1001.9 hPa SW 9.7 km/h 30.6 km/h 51 % 0.0 mm
06:30 17.8 °C 7.5 °C 1001.9 hPa SW 4.8 km/h 29.0 km/h 51 % 0.0 mm
06:35 17.8 °C 7.5 °C 1001.9 hPa Calm   25.7 km/h 51 % 0.0 mm
06:40 17.7 °C 7.4 °C 1001.9 hPa SSW 3.2 km/h 16.1 km/h 51 % 0.0 mm
06:45 17.7 °C 7.4 °C 1001.9 hPa SSW 1.6 km/h 19.3 km/h 51 % 0.0 mm
06:50 17.5 °C 7.2 °C 1001.9 hPa Calm   8.0 km/h 51 % 0.0 mm
06:55 17.3 °C 7.3 °C 1001.6 hPa SSW 1.6 km/h 16.1 km/h 52 % 0.0 mm
07:00 17.4 °C 7.4 °C 1001.6 hPa Calm   17.7 km/h 52 % 0.0 mm
07:05 17.3 °C 7.3 °C 1001.9 hPa Calm   16.1 km/h 52 % 0.0 mm
07:10 17.3 °C 7.1 °C 1001.9 hPa South 1.6 km/h 19.3 km/h 51 % 0.0 mm
07:15 17.4 °C 7.2 °C 1001.9 hPa Calm   9.7 km/h 51 % 0.0 mm
07:20 17.5 °C 7.2 °C 1001.9 hPa WSW 16.1 km/h 17.7 km/h 51 % 0.0 mm
07:25 17.6 °C 7.3 °C 1001.6 hPa South 6.4 km/h 16.1 km/h 51 % 0.0 mm
07:30 17.6 °C 7.3 °C 1001.6 hPa WSW 19.3 km/h 20.9 km/h 51 % 0.0 mm
07:35 17.6 °C 7.1 °C 1001.6 hPa SSE 11.3 km/h 16.1 km/h 50 % 0.0 mm
07:40 17.6 °C 7.0 °C 1001.2 hPa SSW 3.2 km/h 20.9 km/h 50 % 0.0 mm
07:45 17.5 °C 6.9 °C 1001.2 hPa SSW 14.5 km/h 24.1 km/h 50 % 0.0 mm
07:50 17.5 °C 6.9 °C 1001.2 hPa South 12.9 km/h 17.7 km/h 50 % 0.0 mm
08:00 17.3 °C 6.8 °C 1001.2 hPa SSE 4.8 km/h 11.3 km/h 50 % 0.0 mm
08:05 17.3 °C 6.8 °C 1001.2 hPa Calm   16.1 km/h 50 % 0.0 mm
08:10 17.3 °C 6.4 °C 1001.2 hPa WSW 6.4 km/h 16.1 km/h 49 % 0.0 mm
08:15 17.6 °C 6.1 °C 1000.9 hPa Calm   17.7 km/h 47 % 0.0 mm
08:20 17.8 °C 6.0 °C 1000.9 hPa WSW 3.2 km/h 22.5 km/h 46 % 0.0 mm
08:25 17.9 °C 6.4 °C 1000.9 hPa SW 16.1 km/h 19.3 km/h 47 % 0.0 mm
08:30 17.9 °C 6.1 °C 1000.9 hPa WSW 1.6 km/h 33.8 km/h 46 % 0.0 mm
08:35 18.3 °C 5.8 °C 1001.2 hPa SW 8.0 km/h 33.8 km/h 44 % 0.0 mm
08:40 18.7 °C 6.1 °C 1001.2 hPa SW 17.7 km/h 40.2 km/h 44 % 0.0 mm
08:50 18.6 °C 6.7 °C 1001.2 hPa Calm   30.6 km/h 46 % 0.0 mm
09:00 18.3 °C 6.7 °C 1001.6 hPa Calm   6.4 km/h 47 % 0.0 mm
09:05 17.9 °C 7.1 °C 1001.2 hPa Calm   6.4 km/h 49 % 0.0 mm
Stazione meteorologica di Tortoreto (TE)
complimenti di Weather Underground - 3 mb

Script sviluppato da  Jim McMurry - jmcmurry@mwt.net Adattato per il modello da  Wim van der Kuil - Leuven-Template.eu

Potete trovare le nostre info meteo anche a:

European Weather Network

Weather Underground

AWEKAS

Citizen Weather Observer Program (CWOP)

HAMweather, WeatherForYou, PWS Weather

Strumentazione usata:

Stazione meteo
Davis VP2

Programma gestore dati meteo
WVIEW

Server per i dati meteo
My Computer

Provider
My provider

Davis VP2

WVIEW

My Computer

My provider